Temp
16 13 10 11 11 10 10 10 10 11 10 10 10 10 10 10 11 10 10 10 9 11 12 12 12 12 12 11 12 11 11 11 10 9 9 9 10 10 9 9 8 9 8
15 13 10 11 11 10 10 10 10 10 10 10 10 10 10 10 10 10 9 9 10 11 12 12 12 11 11 11 11 11 10 11 11 10 9 9 8 9 9 9 9 7 7
16 14 10 11 11 10 9 10 11 10 10 10 10 10 10 10 10 9 9 9 10 11 12 12 12 12 12 11 11 11 11 11 11 10 9 11 11 11 9 9 9 9 9
16 15 12 10 11 10 9 10 10 9 9 10 10 10 10 10 9 9 9 9 10 10 11 11 11 11 11 11 11 11 12 11 10 10 10 9 10 10 10 9 8 8 8
17 15 14 11 12 10 10 10 10 9 9 9 10 10 9 9 9 9 9 9 10 10 10 10 11 10 10 11 11 11 11 11 10 9 9 9 9 9 10 10 9 9 9
17 16 14 13 11 9 9 10 10 9 9 9 9 9 10 9 9 9 10 10 10 10 10 10 11 10 10 11 11 11 11 11 10 9 8 8 8 9 9 9 10 8 8
17 16 14 13 12 10 9 9 10 10 9 9 10 9 9 10 9 9 9 9 10 10 10 10 10 10 11 10 11 11 11 11 10 10 10 9 10 9 8 9 9 9 8
17 16 15 14 13 10 9 9 9 10 10 10 10 10 8 9 10 9 9 10 10 11 11 11 11 11 10 10 10 9 10 10 10 10 10 10 10 10 10 9 8 6 6
17 16 16 14 13 11 10 9 9 9 9 9 9 9 10 10 9 9 9 10 9 10 11 11 11 10 9 9 10 9 9 9 9 9 10 10 10 10 10 9 9 6 6
18 17 16 14 13 12 12 10 9 9 8 8 8 9 8 8 8 9 9 9 9 9 9 9 8 9 9 9 9 8 8 8 8 8 8 9 10 10 10 9 9 8 5
18 17 17 15 13 12 12 13 10 9 9 9 8 8 8 8 8 8 9 9 9 9 8 8 8 8 9 9 8 8 9 8 9 9 10 10 10 9 9 8 8 8 7
19 18 16 15 14 12 12 16 15 13 11 10 10 9 9 9 8 9 9 9 9 9 9 8 8 9 9 9 9 9 11 11 11 11 10 10 9 8 7 8 8 8 7
19 18 16 16 15 14 12 13 14 14 11 9 9 9 10 10 10 11 10 8 9 8 8 8 8 8 9 9 10 10 11 11 10 10 9 9 9 7 7 8 8 7 6
19 18 17 17 16 15 14 13 12 11 10 10 10 10 11 11 10 11 11 10 10 10 10 10 10 9 9 9 8 9 10 10 9 10 9 9 9 8 8 7 7 7 7
20 19 18 18 17 16 15 14 13 12 11 11 10 10 11 11 11 11 12 12 10 10 10 9 9 9 9 9 9 9 10 9 9 9 8 8 7 7 7 6 6 5 5
22 21 19 18 17 16 15 14 16 14 12 11 11 10 10 11 10 10 9 10 10 9 10 9 9 9 10 9 9 9 9 9 8 7 7 7 6 6 6 5 5 4 4
21 21 20 19 17 16 15 14 15 14 12 12 11 11 10 10 9 9 9 8 8 8 9 9 9 9 9 9 9 9 8 8 7 7 6 5 5 4 4 4 3 2 2
20 19 19 18 18 16 15 14 13 12 12 11 10 10 10 9 9 9 9 9 8 9 9 9 9 9 8 8 8 8 7 7 6 6 5 4 3 2 1 1 1 -0 -0
16 16 16 14 17 16 14 11 11 11 10 10 10 9 9 9 9 9 8 8 8 8 8 8 7 7 7 7 7 7 5 4 4 3 2 0 -0 -1 -2 -2 -3 -3 -3
13 11 11 13 12 12 11 14 11 11 10 9 9 9 9 9 8 8 8 8 8 7 7 6 5 5 4 4 4 3 2 2 1 -1 -2 -3 -3 -3 -3 -3 -3 -3 -3
11 8 7 8 7 8 10 9 8 8 9 9 9 8 8 8 7 7 6 6 6 5 5 4 3 3 1 1 0 -0 -1 -1 -2 -3 -3 -3 -3 -4 -4 -4 -4 -5 -6
7 7 7 8 8 8 8 8 8 8 8 8 8 7 7 6 6 6 5 4 4 4 2 1 0 -1 -2 -2 -2 -2 -2 -3 -3 -4 -4 -5 -5 -6 -6 -7 -7 -8 -9
7 7 7 6 7 7 8 8 6 7 7 7 6 6 5 5 4 4 3 3 2 1 -0 -1 -2 -3 -3 -3 -4 -4 -4 -4 -5 -6 -6 -7 -7 -8 -9 -9 -10 -10 -11
6 6 7 6 5 6 6 5 5 5 5 5 4 3 4 3 2 1 1 0 -1 -2 -2 -3 -4 -5 -5 -6 -6 -6 -7 -7 -7 -8 -9 -9 -10 -10 -11 -11 -11 -12 -13
4 6 5 5 4 3 3 3 3 4 5 3 2 1 0 1 -0 -1 -2 -2 -3 -4 -4 -5 -6 -8 -8 -9 -8 -8 -8 -9 -10 -11 -11 -11 -11 -11 -12 -12 -12 -13 -13
5 4 4 3 2 2 2 2 2 3 3 2 -0 -1 -2 -2 -2 -3 -4 -5 -5 -5 -5 -6 -7 -8 -9 -10 -10 -10 -10 -11 -11 -12 -13 -13 -13 -13 -14 -14 -14 -15 -15
Height
1445 1446 1445 1444 1447 1451 1453 1454 1456 1456 1456 1454 1454 1453 1455 1465 1473 1481 1489 1498 1508 1516 1521 1528 1532 1538 1542 1547 1551 1556 1559 1561 1564 1569 1569 1570 1570 1571 1572 1573 1572 1573 1573
1440 1442 1442 1442 1444 1449 1451 1452 1454 1457 1457 1458 1459 1460 1462 1467 1475 1484 1492 1499 1507 1515 1520 1526 1531 1537 1541 1546 1549 1553 1557 1557 1561 1564 1569 1570 1570 1567 1567 1568 1568 1569 1570
1434 1439 1439 1438 1441 1445 1449 1451 1452 1455 1457 1460 1463 1466 1470 1475 1481 1486 1493 1499 1505 1512 1519 1525 1531 1535 1540 1544 1548 1551 1553 1555 1558 1561 1565 1565 1563 1564 1563 1562 1563 1563 1563
1430 1434 1436 1435 1437 1442 1447 1449 1451 1453 1457 1460 1463 1467 1470 1474 1481 1487 1493 1498 1505 1512 1518 1524 1529 1534 1538 1541 1544 1548 1550 1553 1554 1557 1558 1558 1558 1559 1560 1558 1556 1558 1558
1426 1428 1434 1432 1434 1439 1443 1446 1449 1451 1455 1459 1462 1465 1470 1476 1480 1488 1494 1499 1505 1510 1516 1522 1526 1531 1535 1539 1542 1545 1547 1549 1551 1552 1554 1555 1554 1554 1554 1554 1553 1551 1551
1423 1424 1431 1432 1434 1437 1441 1443 1447 1449 1453 1458 1462 1466 1470 1474 1479 1485 1491 1497 1502 1508 1514 1520 1524 1528 1532 1536 1538 1540 1542 1544 1544 1547 1547 1548 1549 1548 1548 1546 1548 1546 1546
1418 1421 1426 1428 1431 1434 1437 1441 1444 1447 1451 1456 1460 1465 1471 1475 1479 1485 1490 1496 1500 1504 1509 1515 1520 1525 1528 1531 1533 1534 1536 1539 1539 1540 1540 1540 1539 1540 1540 1539 1538 1535 1536
1414 1417 1420 1425 1426 1430 1434 1438 1441 1445 1448 1453 1459 1464 1470 1474 1480 1484 1490 1492 1498 1503 1507 1511 1516 1519 1521 1526 1529 1531 1531 1533 1533 1533 1533 1532 1532 1531 1532 1531 1530 1526 1524
1409 1413 1415 1421 1423 1426 1431 1435 1439 1442 1446 1450 1456 1461 1466 1471 1477 1482 1486 1490 1494 1500 1504 1507 1510 1513 1517 1520 1522 1523 1524 1526 1527 1526 1526 1523 1523 1523 1523 1522 1522 1515 1514
1403 1408 1411 1415 1421 1422 1427 1433 1438 1441 1445 1448 1452 1457 1462 1467 1473 1477 1480 1484 1489 1494 1499 1502 1504 1508 1510 1513 1516 1517 1518 1519 1520 1518 1518 1516 1514 1512 1511 1510 1509 1508 1503
1398 1402 1408 1411 1417 1419 1421 1426 1432 1437 1441 1445 1449 1453 1457 1461 1466 1470 1474 1479 1484 1488 1492 1496 1498 1501 1504 1506 1509 1510 1510 1509 1509 1508 1506 1505 1504 1502 1500 1496 1496 1492 1492
1396 1399 1404 1408 1411 1416 1415 1419 1425 1430 1435 1439 1444 1448 1453 1456 1460 1463 1468 1473 1477 1481 1485 1489 1491 1494 1497 1499 1499 1500 1499 1500 1499 1497 1495 1492 1490 1486 1481 1483 1483 1481 1480
1393 1396 1400 1403 1406 1411 1413 1413 1418 1424 1430 1435 1439 1443 1446 1450 1454 1458 1463 1467 1471 1475 1479 1483 1485 1487 1488 1489 1489 1489 1491 1491 1488 1486 1483 1483 1480 1474 1472 1469 1469 1467 1469
1392 1394 1397 1399 1403 1405 1408 1410 1414 1420 1425 1430 1433 1436 1440 1444 1449 1453 1457 1461 1465 1469 1472 1475 1477 1478 1480 1481 1481 1479 1479 1478 1478 1476 1474 1472 1467 1466 1465 1463 1461 1459 1457
1389 1391 1393 1395 1397 1400 1403 1406 1409 1413 1419 1424 1428 1432 1436 1439 1443 1446 1450 1454 1458 1461 1465 1467 1469 1470 1471 1472 1473 1472 1470 1468 1466 1464 1462 1461 1459 1457 1456 1455 1452 1451 1450
1385 1387 1388 1392 1393 1394 1397 1401 1403 1408 1413 1419 1424 1428 1431 1435 1438 1441 1445 1449 1452 1455 1458 1459 1461 1462 1463 1462 1462 1461 1460 1458 1457 1455 1454 1453 1450 1448 1447 1446 1444 1443 1441
1381 1381 1384 1386 1389 1391 1393 1398 1400 1403 1408 1414 1418 1423 1427 1430 1433 1436 1439 1443 1445 1448 1451 1452 1453 1453 1453 1453 1453 1454 1452 1450 1448 1447 1445 1444 1441 1440 1438 1437 1437 1436 1435
1377 1378 1378 1380 1383 1387 1388 1394 1396 1399 1403 1409 1414 1417 1421 1426 1430 1434 1437 1439 1440 1442 1443 1444 1445 1446 1446 1446 1446 1445 1444 1443 1442 1441 1440 1438 1437 1435 1434 1433 1433 1433 1433
1371 1373 1375 1376 1375 1379 1382 1389 1394 1398 1401 1403 1409 1413 1417 1421 1425 1428 1432 1434 1436 1437 1438 1439 1439 1440 1440 1440 1440 1439 1438 1438 1438 1437 1437 1436 1435 1434 1434 1433 1433 1433 1433
1367 1369 1369 1369 1373 1374 1379 1380 1387 1391 1396 1401 1406 1410 1414 1419 1422 1425 1427 1429 1431 1433 1434 1435 1436 1436 1436 1436 1436 1436 1437 1438 1437 1437 1437 1437 1437 1438 1437 1436 1434 1433 1432
1362 1367 1368 1368 1371 1374 1376 1381 1386 1390 1395 1400 1403 1408 1412 1416 1420 1423 1426 1428 1430 1432 1433 1434 1434 1435 1436 1436 1436 1437 1438 1438 1439 1439 1439 1438 1437 1436 1435 1434 1432 1431 1429
1361 1368 1368 1370 1372 1376 1382 1384 1387 1391 1396 1402 1403 1407 1411 1416 1420 1423 1426 1428 1430 1431 1433 1435 1436 1437 1438 1440 1440 1441 1441 1440 1440 1439 1438 1436 1435 1433 1431 1430 1428 1427 1426
1361 1369 1366 1369 1373 1377 1382 1384 1388 1393 1397 1400 1406 1408 1413 1416 1421 1424 1426 1429 1431 1433 1435 1436 1438 1440 1441 1442 1442 1442 1441 1440 1439 1437 1436 1434 1432 1431 1429 1428 1426 1425 1424
1369 1372 1371 1378 1377 1382 1388 1389 1393 1395 1398 1402 1410 1412 1416 1418 1424 1427 1428 1430 1434 1436 1438 1439 1440 1441 1442 1442 1442 1441 1440 1439 1437 1436 1434 1432 1430 1429 1429 1428 1426 1424 1423
1375 1373 1377 1377 1381 1391 1393 1394 1399 1400 1397 1408 1413 1417 1421 1422 1426 1429 1432 1435 1438 1439 1441 1442 1442 1442 1441 1442 1441 1440 1440 1438 1437 1436 1435 1433 1432 1431 1430 1429 1427 1424 1422
1375 1376 1378 1382 1388 1393 1396 1400 1403 1402 1404 1409 1417 1422 1424 1426 1430 1432 1435 1439 1441 1441 1442 1443 1443 1442 1442 1442 1441 1440 1439 1437 1436 1435 1434 1432 1431 1430 1428 1427 1425 1423 1420
Wind_Speed
10 10 8 7 10 10 9 11 6 7 8 10 27 35 44 49 45 52 46 38 44 47 45 41 37 34 31 28 28 24 23 19 18 13 12 14 19 18 18 18 18 18 18
13 12 10 8 14 12 11 11 9 10 16 11 24 36 37 37 38 39 35 31 41 45 44 42 38 34 27 28 29 27 21 22 22 19 11 10 14 23 24 22 21 20 19
16 16 14 11 15 15 13 15 13 14 17 18 26 29 29 30 33 33 34 34 34 42 44 40 34 32 30 29 27 26 23 23 23 25 12 9 12 11 18 26 25 25 26
16 17 17 14 15 18 13 14 14 15 20 23 28 30 32 35 36 33 34 38 38 34 34 37 34 30 30 28 25 24 24 24 25 28 31 22 11 10 8 14 22 27 29
19 19 18 15 14 18 18 17 14 16 22 25 26 30 34 39 37 34 35 39 37 41 38 29 27 26 26 23 23 24 32 29 25 23 24 29 29 29 26 19 13 19 26
19 19 18 17 16 17 17 18 18 17 22 24 24 27 35 42 38 39 33 36 39 40 44 43 37 32 28 30 29 29 33 33 35 31 29 26 24 24 25 34 37 26 31
21 22 23 21 20 20 20 20 20 20 24 27 26 29 31 37 40 36 33 31 39 40 41 40 39 37 40 37 36 33 34 35 35 35 37 38 39 39 32 36 41 42 44
21 25 25 23 22 22 22 21 22 24 25 28 26 28 26 35 33 29 30 38 39 40 41 42 40 43 38 39 36 34 33 34 35 34 35 36 39 40 40 44 47 34 38
20 25 26 24 23 23 24 24 23 24 26 28 31 31 27 35 35 27 29 33 31 33 39 37 36 34 36 35 35 33 31 30 35 37 40 41 43 45 46 48 47 45 35
20 25 27 27 24 23 23 24 24 25 25 27 30 33 31 32 29 30 31 32 29 28 26 28 31 32 34 34 32 32 32 31 34 34 37 39 47 48 48 50 50 49 46
19 23 26 26 25 24 25 27 28 27 27 27 28 29 29 30 33 33 36 37 37 34 32 32 31 32 35 35 36 37 38 36 40 41 46 48 51 52 52 44 53 51 43
15 18 22 25 27 27 27 28 31 32 30 28 28 29 28 30 32 36 35 36 37 37 37 35 33 33 34 37 38 44 48 47 46 47 51 54 52 49 58 59 48 51 57
10 15 20 24 27 28 27 28 28 31 29 28 29 29 30 31 32 34 36 31 32 31 29 30 31 31 32 33 37 43 42 42 49 47 48 42 42 44 48 47 47 49 50
9 13 17 21 23 26 27 27 27 27 28 29 29 29 29 29 28 29 30 31 30 30 31 32 32 31 30 29 30 35 39 42 42 43 42 44 40 39 40 45 48 48 50
9 11 16 20 21 22 23 25 24 26 28 29 29 28 28 27 27 27 28 28 28 29 28 26 27 27 28 31 34 36 35 34 33 35 37 36 38 39 41 41 45 44 44
15 12 13 17 20 22 22 23 23 23 24 25 24 23 23 24 25 25 25 26 27 28 28 27 26 29 29 27 24 25 30 32 33 32 33 34 34 34 35 35 37 37 35
19 16 15 16 17 19 20 20 21 21 21 20 19 19 19 20 21 20 20 21 23 21 21 21 22 25 26 26 27 28 28 26 27 28 30 29 28 28 28 27 28 28 27
15 16 20 17 17 15 17 17 18 18 18 16 15 14 14 13 12 13 14 16 20 20 23 23 23 24 24 23 23 22 21 20 20 21 22 22 22 20 17 16 17 16 16
11 9 11 13 19 16 17 16 17 16 18 19 17 15 15 15 15 15 16 17 17 17 16 15 14 13 11 13 15 16 14 14 14 14 13 12 10 9 9 8 8 9 12
2 3 9 12 14 16 19 21 23 23 21 18 17 16 14 13 13 13 12 11 9 9 8 6 3 2 3 6 7 7 7 6 5 3 3 3 6 9 11 13 14 15 16
5 9 13 17 21 21 25 28 28 28 26 24 22 20 18 16 14 13 11 9 8 7 5 4 4 3 5 6 3 3 3 4 5 6 7 9 11 13 16 17 17 17 17
18 20 24 27 27 26 29 33 32 30 28 25 24 23 21 18 14 10 9 8 6 6 7 7 8 7 9 9 9 8 7 6 7 9 11 14 16 18 18 17 16 16 14
30 30 34 33 31 33 30 33 33 29 28 26 23 21 18 16 14 12 12 11 9 9 10 8 9 9 8 6 5 6 8 10 11 12 13 15 15 15 13 15 14 13 12
28 28 29 31 34 31 31 33 30 28 26 26 23 22 20 20 18 16 14 14 13 12 11 10 9 7 6 6 7 9 11 12 13 14 14 14 14 15 14 14 14 14 12
28 32 34 34 33 30 30 28 26 25 28 28 26 24 22 21 19 19 18 15 14 11 9 8 6 5 6 6 8 10 11 12 13 12 11 11 11 11 11 12 12 10 11
29 31 31 33 32 30 29 28 27 26 26 27 25 24 23 21 19 18 17 14 11 8 6 5 5 5 3 3 7 10 12 13 12 10 11 11 12 12 12 12 12 12 14
Wind_Direction
222 214 215 220 205 225 217 204 208 222 214 169 148 149 153 169 157 178 184 183 186 189 188 193 195 191 193 193 197 196 197 200 201 191 205 216 225 226 224 218 218 219 219
204 208 205 201 201 222 208 200 204 209 190 182 160 165 168 164 177 182 180 178 189 190 193 199 198 196 197 202 202 204 200 212 217 212 211 220 233 235 233 229 228 223 225
202 202 201 199 201 211 216 196 204 215 195 185 169 164 172 179 182 182 176 182 187 195 199 204 204 204 209 211 211 216 221 229 228 220 204 221 233 238 234 236 235 236 236
203 197 197 194 199 208 201 195 207 205 202 192 188 190 189 186 173 180 189 186 189 191 202 209 205 209 212 211 220 221 237 235 239 232 231 227 219 218 226 241 238 237 238
204 190 198 189 198 202 208 203 201 196 200 195 201 194 187 176 180 182 192 194 191 194 201 205 204 207 216 221 229 234 240 243 238 238 241 245 246 248 245 259 242 243 246
204 187 194 181 184 193 202 206 201 198 196 195 196 195 190 188 187 187 196 197 200 203 210 212 222 222 221 222 231 239 250 251 254 243 244 241 245 251 244 251 251 263 261
200 190 191 185 184 191 195 200 201 195 191 194 196 198 201 197 197 194 203 191 197 202 203 211 216 218 225 232 235 246 253 256 260 260 256 263 266 265 255 260 261 264 260
200 199 193 193 188 191 198 199 198 200 199 205 205 197 201 204 206 203 201 202 200 203 206 210 224 241 239 229 237 239 250 256 260 262 264 268 271 272 275 268 267 251 247
202 201 194 199 191 193 199 199 198 202 203 202 206 205 206 208 207 205 204 206 208 215 224 229 234 231 228 235 243 248 251 255 258 262 270 273 277 277 275 272 267 247 241
200 199 198 197 199 195 199 203 201 200 202 202 202 206 208 209 210 213 212 212 214 220 224 228 229 231 235 239 245 249 252 255 260 266 270 275 282 281 276 274 271 265 247
200 197 198 195 201 197 198 208 204 203 201 200 204 205 208 210 212 215 219 222 225 227 231 231 236 238 235 238 245 250 256 259 266 269 277 281 282 281 282 280 276 265 268
193 192 198 195 198 203 198 210 213 212 210 207 206 209 210 212 215 218 219 222 226 230 235 237 237 236 238 242 245 252 258 264 267 272 275 279 285 285 275 268 269 269 266
189 188 191 197 201 205 205 206 214 215 213 209 209 210 214 215 218 221 222 223 227 231 232 233 236 240 242 247 251 256 262 263 268 274 278 281 284 292 278 270 263 266 264
196 198 197 199 203 207 208 207 208 211 211 210 212 214 217 220 223 226 228 231 235 237 237 239 244 246 249 251 255 266 274 276 275 278 279 289 280 287 278 267 272 277 271
201 210 211 209 204 204 205 208 207 213 211 213 217 219 221 225 227 231 235 237 237 241 242 242 245 250 253 259 264 269 275 281 287 291 288 288 285 284 279 277 275 272 267
259 225 221 220 214 209 206 204 203 207 207 210 216 218 224 227 231 233 233 237 239 242 247 248 250 256 264 268 270 277 283 284 285 283 280 283 288 285 282 283 274 269 266
261 255 232 229 222 213 208 205 201 200 202 203 208 214 217 221 224 229 230 230 234 240 249 253 252 254 261 268 270 272 273 273 274 278 280 280 282 281 280 277 265 258 253
274 263 254 249 232 211 207 198 192 192 192 191 196 200 205 210 215 218 219 220 224 226 232 240 248 252 258 266 270 273 278 281 282 282 280 278 275 268 259 253 243 236 236
283 261 243 225 226 202 193 176 169 168 171 179 180 182 190 198 206 213 218 222 228 229 232 238 244 254 259 271 281 290 293 293 283 280 272 263 261 256 246 254 271 286 291
254 205 195 191 183 171 170 174 166 163 159 156 155 155 160 173 183 186 188 189 198 206 198 194 201 249 308 308 305 306 305 285 293 283 287 336 345 337 330 322 313 305 299
142 153 151 150 148 154 154 146 143 139 138 142 142 141 141 144 144 148 140 137 140 140 142 138 107 73 50 35 8 38 19 26 8 352 342 334 324 316 311 309 310 308 304
132 133 134 126 126 132 141 134 131 130 135 136 134 131 130 126 123 124 118 117 120 129 112 97 85 66 61 59 57 47 34 14 351 341 332 326 326 325 325 325 321 320 313
134 140 134 132 131 135 137 132 125 131 130 127 119 119 118 117 116 117 114 112 111 107 101 92 85 76 66 46 15 350 342 336 336 333 330 332 335 339 341 326 326 324 318
131 135 129 126 119 123 128 123 125 127 124 117 114 112 113 113 109 107 106 109 104 100 98 88 78 64 45 19 4 357 351 347 348 345 341 347 356 351 344 342 328 316 311
135 135 131 125 121 124 122 120 123 127 118 116 112 111 110 109 110 108 103 102 102 102 100 95 91 67 47 21 359 350 345 349 351 354 351 347 347 340 333 327 322 318 320
144 134 128 128 124 124 120 120 120 119 117 113 112 111 108 106 105 104 105 101 99 98 92 91 77 76 77 347 344 339 339 344 343 357 354 350 348 342 336 331 321 322 324